Location: The Saddle
(36.8333°N, 80.3417°W)
Time: 10:38:27
(UTC-05:00)

S-56A Canister/Altair - Pass Details

Date: 10 December 2023
Orbit: 640 x 2488 km, 38.9° (Epoch: 25 February)

Event Time Altitude Azimuth Distance (km) Brightness Sun altitude
Rises 07:30:00 0° 199° (SSW) 4,665 11.7 0.4°
Reaches altitude 10° 07:34:58 10° 180° (S) 3,268 11.2 1.2°
Maximum altitude 07:39:12 15° 147° (SSE) 2,528 11.4 2.0°
Drops below altitude 10° 07:42:43 10° 113° (ESE) 2,633 12.5 2.6°
Sets 07:46:02 0° 90° (E) 3,330 11.9 3.1°
